Beidou DW 51

operational
NORAD ID: 44793 Int'l Des: 2019-078 Owner: CNSA Country: CN Constellation: BeiDou
MEOCIRCULAR

About Beidou DW 51

Description loading...

Live Position

Loading 3D Globe...

Upcoming Passes

Altitude History

Altitude vs Time

uPlot chart will show altitude changes over time

Two-Line Element Set

1 44793U 19078A 25298.97069858 -.00000043 00000-0 00000+0 0 9997
2 44793 54.1511 308.0624 0004874 22.6667 337.3765 1.86232203 40286
Epoch: Oct 25, 2025 • Age: 13 hours

Current Status

Altitude 21516.7 km
Velocity 3.78 km/s
Sub-Earth Point -3.78°S, 89.94°E
Launch Date Nov 23, 2019
Age 5.9 years
Type navigation

Technical Details

Classification Payload
Mass 1014.00 kg
Dry Mass 850.00 kg
Total Mass 1014.00 kg
Length 2.20 m
Diameter 1.70 m
Span 10.00 m
Shape Box + 2 Pan
Manufacturer SECM
Bus Type BD-3M2
Phase Status In Orbit
Owner/State CNSA/CN

Large Constellations

Loading constellations...